Location: Camden Lake
(44.4269°N, 76.8469°W)
Time: 17:59:23
(UTC-04:00)

Daily predictions for brighter satellites

Satellite Brightness Start Highest point End
(mag) Time Altitude Azimuth Time Altitude Azimuth Time Altitude Azimuth
Spot 2 Rocket 4.2 19:10:50 10° SE 19:15:16 32° ENE 19:19:43 10° N
Cosmos 1766 Rocket 3.7 19:13:53 10° N 19:18:09 49° ENE 19:22:21 10° SSE
ATLAS 5 CENTAUR R/B 1.9 19:14:07 10° SSW 19:18:52 67° ESE 19:24:02 10° NE
MSX 4.2 19:13:42 10° S 19:19:26 75° WSW 19:25:13 10° NNW
Abrixas 3.4 19:18:41 10° SSW 19:21:24 31° SSE 19:24:08 10° E
Cosmos-2242 3.6 19:20:28 10° SSE 19:24:28 36° E 19:28:30 10° NNE
Cosmos 2237 Rocket 3.9 19:22:18 10° WSW 19:27:28 35° NW 19:32:40 10° N
CZ-2C R/B 4.3 19:24:29 10° SSW 19:28:55 34° W 19:33:16 10° NNW
SJ-6B 2.9 19:25:04 10° SSE 19:29:02 64° ENE 19:33:07 10° N
USA 215 4.1 19:24:33 10° ENE 19:30:02 28° SE 19:35:29 10° S
ATLAS CENTAUR R/B 3.7 19:26:53 10° SSW 19:31:54 73° SE 19:48:12 10° NE
HJ-1C 4.1 19:28:53 10° SE 19:31:56 33° ENE 19:35:00 10° N
Cosmos 1346 3.7 19:30:11 10° N 19:32:57 34° ENE 19:35:43 10° SE
FREGAT/IRIS 2.8 19:30:55 10° SSE 19:33:55 52° ENE 19:36:57 10° N
Cosmos 1544 3.8 19:31:31 10° SSE 19:34:53 33° E 19:38:18 10° NNE
Cosmos 1484 Rocket 3.6 19:32:08 10° S 19:35:56 55° W 19:39:49 10° NNW
TELKOM 3 3.1 19:33:30 10° WNW 19:36:40 79° NNE 19:38:26 15° ESE
SAR-Lupe-4 3.6 19:34:47 10° SSE 19:38:21 82° WSW 19:41:57 10° NNW
Cosmos 724 4.3 19:32:39 10° SSW 19:38:32 68° ESE 19:44:36 10° NE
METEOR-M 4.2 19:33:38 10° SSE 19:38:52 59° ENE 19:44:08 10° N
Cosmos 1758 3.3 19:40:52 10° S 19:44:56 70° E 19:49:02 10° NNE
Cosmos 1464 Rocket 4.1 19:39:39 10° S 19:45:53 87° W 19:52:06 10° N
Cosmos 2034 Rocket 4.0 19:39:51 10° S 19:46:05 72° E 19:52:25 10° NNE
Cosmos 1408 Rocket 3.8 19:44:41 10° NNW 19:49:01 72° W 19:53:19 10° S
SL-16 R/B 3.2 19:44:14 10° SW 19:49:44 49° WNW 19:55:17 10° NNE
Cosmos 1500 Rocket 4.0 19:46:01 10° N 19:50:13 39° ENE 19:54:24 10° SE
CZ-4B DEB 3.9 19:49:16 18° ESE 19:50:45 25° ENE 19:53:30 10° NNE
Cosmos 1842 Rocket 4.1 19:49:05 10° SSE 19:53:01 35° E 19:57:00 10° NNE
Meteor 1-21 Rocket 4.1 19:49:02 10° N 19:54:38 83° E 20:00:10 10° SSE
FENGYUN 3A 4.0 19:52:20 10° SE 19:57:24 45° ENE 20:02:32 10° N
Spot 1 4.2 19:56:12 10° SSE 20:00:51 88° WSW 20:05:15 10° NNW
Helios 1A 2.9 19:57:05 10° SSE 20:01:16 71° ENE 20:05:29 10° N
CZ-4C R/B 4.3 19:57:28 10° W 20:02:07 26° NNW 20:07:18 10° NNE
Meteor 1-28 Rocket 3.8 20:03:17 10° N 20:06:58 59° WNW 20:10:37 10° SSW
NOSS 3-2 (A) 4.4 20:01:18 10° WSW 20:07:17 50° NW 20:13:52 10° NNE
CZ-2D R/B 3.8 20:06:27 23° SE 20:08:18 38° ENE 20:11:56 10° N
Meteor 1-29 3.0 20:05:12 10° NNE 20:08:41 57° E 20:12:06 10° S
GPS 2-04 Rocket1 4.2 20:12:02 10° SW 20:14:34 19° S 20:15:05 18° SSE
ASTEX 1 3.4 20:12:03 10° NNE 20:16:54 56° E 20:21:41 10° S
H-2A R/B 2.9 20:17:06 30° SE 20:18:41 50° ENE 20:22:26 10° N
Cosmos 839 Rocket 4.3 20:11:04 10° NNW 20:18:56 70° NE 20:23:23 22° SE
Cosmos 1943 Rocket 2.9 20:14:18 10° N 20:19:25 34° NE 20:21:11 28° E
Cosmos 1743 Rocket 3.8 20:15:25 10° NNW 20:19:51 71° W 20:24:13 10° S
Resurs 1-3 3.7 20:17:32 10° S 20:21:56 80° WSW 20:26:21 10° NNW
ALOS 2.1 20:20:14 10° SSE 20:24:51 78° ENE 20:29:32 10° N
Cosmos 2369 Rocket 2.1 20:21:27 10° NNW 20:27:09 81° ENE 20:31:02 21° SSE
Cosmos 2251 Rocket 4.0 20:22:43 10° SSE 20:27:25 35° ESE 20:32:09 10° NE
Helios 1B rocket 2.7 20:24:39 10° N 20:28:46 69° WNW 20:32:51 10° SSW
Cosmos 1943 3.1 20:24:31 10° SSW 20:30:05 65° ESE 20:35:40 10° NNE
Resurs 01 Rocket 2.5 20:25:46 10° S 20:30:06 51° W 20:34:27 10° NNW
SL-8 R/B 3.6 20:27:36 10° WSW 20:32:23 87° SSE 20:34:18 37° ENE
CENTAUR R/B 2.4 20:26:30 10° SSW 20:32:31 68° ESE 20:39:20 10° NE
Gbstr 26 Del rocket 3.3 20:30:04 10° SW 20:34:30 63° SE 20:36:27 37° ENE
Cosmos 1953 4.4 20:33:17 10° SW 20:36:48 29° WNW 20:40:19 10° NNW
ISS -3.3 20:34:32 10° WSW 20:37:47 77° NNW 20:37:49 77° NNW
Cosmos 2263 4.1 20:33:09 10° NNW 20:38:57 74° ENE 20:41:31 34° SE
Cosmos 1331 Rocket 4.1 20:33:44 10° NNW 20:38:58 55° ENE 20:40:19 43° ESE
BREEZE-M DEB (TANK) 3.4 20:26:45 10° W 20:39:53 83° N 20:41:39 41° E
Cosmos 1733 3.2 20:37:27 10° S 20:41:19 80° W 20:45:12 10° N
ERBS 3.2 20:41:39 10° NW 20:44:31 40° N 20:44:31 40° N
Cosmos 1674 4.0 20:43:54 10° NNW 20:47:35 41° W 20:51:14 10° SSW
Cosmos 1470 3.5 20:44:43 10° SSW 20:48:31 53° W 20:52:20 10° N
Cosmos 2279 Rocket 4.0 20:48:02 34° SE 20:50:23 51° E 20:56:22 10° NNE
GP-B 3.0 20:47:00 10° N 20:51:28 86° E 20:52:56 42° S
Cosmos 2058 3.1 20:48:21 10° N 20:51:47 54° NNE 20:51:47 54° NNE
Cosmos 1302 Rocket 4.4 20:47:36 10° N 20:52:26 43° ENE 20:52:26 43° ENE
Abrixas 4.2 20:54:11 10° W 20:56:04 32° WNW 20:56:04 32° WNW
Cosmos 1092 Rocket 4.5 20:51:13 10° NNW 20:57:17 59° W 21:03:17 10° S
Cosmos 2151 3.2 20:56:36 10° NNW 21:00:48 67° W 21:01:36 53° SSW
H-2A R/B 4.1 21:03:10 17° NNE 21:03:10 17° NNE 21:04:40 10° N
Cosmos 1805 Rocket 4.0 20:57:44 10° N 21:01:08 48° NNE 21:01:08 48° NNE
ATLAS 5 CENTAUR R/B 4.0 20:59:58 10° W 21:04:04 25° NW 21:08:29 10° NNE
SL-24 R/B - RUBIN 2 4.4 20:57:49 10° NW 21:04:33 88° SW 21:06:20 51° SSE
Envisat 3.4 21:05:37 47° NE 21:05:37 47° NE 21:09:49 10° N
Cosmos 2221 3.9 21:09:42 28° NNE 21:09:42 28° NNE 21:11:50 10° N
Cosmos 1655 Rocket 3.9 21:01:29 10° N 21:07:45 87° E 21:10:10 40° S
Cosmos 2026 Rocket 3.9 21:02:14 10° N 21:08:21 84° W 21:11:21 33° S
Meteor 2-1 Rocket 4.1 21:08:30 52° SSE 21:09:56 73° E 21:15:50 10° NNE
Cosmos 1428 Rocket 4.4 21:04:08 10° N 21:10:25 68° E 21:11:17 61° SE
Cosmos 158 Rocket 4.4 21:06:52 10° SW 21:11:39 55° WNW 21:16:28 10° NNE
Meteor 1-16 Rocket 4.1 21:07:07 10° SSW 21:12:25 80° W 21:17:47 10° N
USA 215 3.2 21:09:20 25° NE 21:13:31 86° NW 21:20:04 10° SW
Cosmos 1634 Rocket 4.4 21:09:11 10° SSW 21:15:21 63° W 21:21:30 10° N
Cosmos 1656 Rocket 4.3 21:16:32 10° NNW 21:20:44 42° NNE 21:20:44 42° NNE
H-2A R/B 4.4 21:30:01 11° NNE 21:30:01 11° NNE 21:30:25 10° NNE
Meteor 2-20 4.3 21:23:39 10° N 21:29:51 90° WNW 21:30:11 81° S
Meteor 2-20 Rocket 4.4 21:24:20 10° N 21:30:02 70° NE 21:30:02 70° NE
ERS-1 Rocket 3.4 21:35:50 59° NW 21:35:50 59° NW 21:39:59 10° NNW
Cosmos 1943 Rocket 3.3 21:58:02 10° NW 22:02:44 39° W 22:02:44 39° W
CENTAUR R/B 4.1 22:18:06 10° W 22:23:47 33° NW 22:30:08 10° NNE
USA 215 4.4 22:56:44 38° NNW 22:56:44 38° NNW 23:02:01 10° W
